Location: Peralejo
(40.5415°N, 4.1259°W)
Time: 05:58:23
(UTC+00:00)

Cosmos 2227 Rocket - Pass Details

Date: 18 April 2024
Orbit: 837 x 846 km, 71.0° (Epoch: 22 May)

Event Time Altitude Azimuth Distance (km) Brightness Sun altitude
Rises 20:03:12 0° 352° (N) 3,415 5.9 -12.2°
Reaches altitude 10° 20:07:23 10° 21° (NNE) 2,475 4.7 -12.9°
Maximum altitude 20:09:40 12° 45° (NE) 2,306 4.3 -13.2°
Drops below altitude 10° 20:11:57 10° 69° (ENE) 2,470 4.2 -13.6°
Enters shadow 20:12:29 - 74° (ENE) 2,553 4.3 -13.7°
